Home | Races | Search | FAQ | Quotes | Link | Advertise | Split Second | NASTAR  
 

page: 1 2 3    Link to This RaceResults  
The Whole Enchilada / Moab, UT - Enduro, Best
USA - UT - Big Mountain Enduro
9/30/2012 8:00 AM

Results by Class¹print

                           Big Mountain Enduro no. 3 
Moab, UT - The Whole Enchilada 
Result Services by CJ Sports Timing 9/30/2012 Page 1 
 
Class: Amateur Men 
Pl Bib License Name Team Result Time Back 
================================================================================ 
1 130 55943 Zachariah White BikeRadar.com 1:33:04 
2 75 One-Day Spencer Lacy 1:34:29 1:25.29 
3 104 2921 Kristopher Baughman Go-Ride 1:34:48 1:44.36 
4 39 159329 Ryan Hamilton Honey Stinger / Bont 1:36:28 3:23.98 
5 79 Craig Harvey 1:36:43 3:39.31 
6 65 One-Day Brett Foncannon 1:37:05 4:01.52 
7 53 One-Day Zak Brown 1:37:32 4:28.08 
8 72 One-Day Tocatta Spearman Hammer Nutrition 1:38:29 5:25.20 
9 25 181547 Joseph Hanrahan Salvagetti 1:38:59 5:55.19 
10 118 153352 Colin McKernan POC 1:39:57 6:53.11 
11 142 One-Day Jason Bertolacci 1:40:00 6:56.59 
12 144 One-Day Jesse Martin 1:40:30 7:26.68 
13 132 299796 Dustyn Ladewig High Desert Bicycles 1:40:45 7:41.34 
14 145 284714 Kolby Preble Kona Grassroots/Olso 1:41:05 8:01.43 
15 66 284159 Cody Johler 1:41:17 8:13.95 
16 133 One-Day Eric IvIE Ruby Canyon Cycles 1:42:09 9:05.79 
17 125 One-Day Ryan Schantzenbach 1:42:24 9:20.78 
18 29 259921 Scott Spangler Heart Soul 1:42:50 9:46.36 
19 124 One-Day Christian Gauvin 1:43:19 10:15.84 
20 30 One-Day Michael Valach Jr 1:45:41 12:37.05 
21 10 247666 Rick Ianniello 1:46:28 13:24.30 
22 7 176274 Sante Pelot 1:47:45 14:41.48 
23 131 One-Day Jerome Lacote Jay The Hill 1:48:25 15:21.55 
24 9 One-Day Tom Perkins 1:48:35 15:30.97 
25 61 379357 Andrew Donchez Beason Bombers 1:49:09 16:05.11 
26 98 Jason Goff 1:49:33 16:29.02 
27 68 One-Day Fabio Wen 1:50:00 16:56.24 
28 122 One-Day Travis Fahrney Progressive Trail De 1:50:38 17:34.83 
29 77 One-Day Andrew Korpi Motown 1:50:42 17:38.26 
30 1 One-Day Max Whittaker Kinetic Cycles 1:51:12 18:08.46 
31 147 152235 Gary Dye Telluride Gravity Wo 1:51:17 18:13.51 
32 55 One-Day Jonathan Yaseen Telluride Gravity Wo 1:53:44 20:40.26 
33 138 308392 Joe Pirelli 1:53:48 20:44.76 
34 78 One-Day Craig Skinner GoRide.com 1:53:52 20:48.37 
35 15 One-Day Paul Pepin 1:54:17 21:13.43 
36 73 16452 Jason Hofman maxxis/gamut 1:54:29 21:25.57 
37 115 One-Day Kevin Waterbury 1:55:10 22:06.77 
38 34 312844 Andrew Morrison 1:56:38 23:34.21 
39 121 152206 Josh Rhea Bohemian Racing 1:56:48 23:44.73 
40 14 One-Day Chris Kaufman 1:57:04 24:00.50 
41 20 One-Day Rick Clark 1:57:29 24:25.26 
42 38 One-Day Doug Bassett 2:00:44 27:40.79 
43 23 79977 William Medcalf 2:01:27 28:23.21 
44 16 One-Day Andy Platt 2:01:46 28:42.40 
45 150 Alex Clark The Fix 2:03:01 29:57.27 
46 27 One-Day Rob Collett 2:04:12 31:08.15 
47 51 New Mason Lacy Complete insanity 2:04:55 31:51.41 
48 108 298284 Larry Young Trek 2:04:59 31:54.97 
49 93 One-Day Matt Kasprzyk Dirt Rag Magazine 2:05:56 32:52.11 
50 82 One-Day Justin Labier Aspen 2:06:00 32:56.62 
51 35 One-Day Mike Wickizer 2:06:34 33:30.13 
52 74 One-Day Craig Rubis 2:09:16 36:12.67 
53 26 One-Day Joshua Verplank 2:10:10 37:06.70 
 
______________________________________________________________________________ 
 
Club Unleashed! Software from www.SplitSecond.com 9/30/2012 1:49:00 PM 

page: 1 2 3             ¹ attached report
Widgets    Upload/View Logos
All results are 'unofficial'     Copyright © 2016 Split Second Sports Timing, Inc., All rights reserved